Temperature
18 19 19 20 20 20 19 18 17 18 18 19 19 19 19 20 20 20 20 20 20 20 19 19 19 19 19 19 18 18 18 17 17 17 17 17 17 16 16 16 16 16 16 16
18 19 19 20 20 20 20 20 19 19 19 20 20 20 20 20 20 19 19 20 20 20 20 19 19 19 19 19 18 18 18 18 17 17 17 17 17 16 16 16 16 16 16 16
17 18 19 19 20 20 20 20 20 19 19 19 19 19 20 20 20 20 20 20 20 20 20 20 20 19 19 19 19 18 18 18 17 17 17 17 17 16 16 16 16 16 16 16
16 18 18 19 19 20 20 20 20 20 19 19 20 20 21 21 21 20 20 20 20 20 20 20 20 20 19 19 18 18 18 18 17 17 17 17 17 16 16 16 16 16 16 16
15 16 17 19 20 20 20 20 20 20 19 20 20 20 20 20 21 21 21 20 20 20 20 20 20 20 19 19 19 18 18 18 18 17 17 17 17 16 16 16 16 16 16 15
15 17 17 18 20 21 20 19 20 20 19 20 20 17 18 20 21 21 20 20 20 20 20 20 20 19 19 19 19 18 18 18 18 17 17 17 17 16 16 16 16 16 15 15
15 16 17 18 20 20 19 19 20 21 20 20 19 19 20 20 20 20 20 20 20 20 20 19 19 19 19 19 18 18 18 18 17 17 17 17 16 16 16 16 15 15 15 15
15 16 17 19 19 19 19 20 21 21 21 21 21 21 20 20 20 20 20 20 19 19 19 19 19 19 19 18 18 18 18 17 17 17 17 16 16 16 16 15 15 15 15 15
15 16 18 20 20 21 21 21 21 21 21 21 20 20 20 20 20 20 19 19 19 19 19 18 18 18 18 18 18 18 17 17 17 17 16 16 16 16 15 15 15 15 14 14
15 16 18 20 21 21 21 21 21 21 21 21 20 20 20 19 19 19 19 19 18 18 18 18 18 18 18 18 18 17 17 17 17 16 16 16 16 15 15 15 14 14 14 14
15 16 18 19 20 20 20 20 20 21 21 21 20 20 20 19 19 19 18 18 18 18 18 18 18 18 18 17 17 17 17 17 16 16 16 15 15 15 15 14 14 14 14 13
15 17 16 18 19 20 20 20 20 20 20 20 20 20 19 19 19 18 18 18 18 18 18 18 17 17 17 17 17 17 16 16 16 16 15 15 15 14 14 14 13 13 13 13
18 18 18 19 19 19 19 19 19 19 19 19 19 19 19 19 18 18 18 18 17 17 17 17 17 17 17 16 16 16 16 16 16 15 15 15 14 14 14 13 13 13 12 12
18 18 18 18 18 19 19 19 19 19 18 19 19 19 19 18 18 17 17 17 17 17 17 17 16 16 16 16 16 16 15 15 15 15 14 14 14 13 13 13 13 12 12 12
18 18 18 18 18 18 18 18 18 18 18 18 18 18 18 18 17 17 17 16 16 16 16 16 16 16 15 15 15 15 15 15 14 14 14 13 13 13 13 12 12 12 12 11
17 18 18 18 17 17 17 17 17 17 17 17 17 17 17 17 17 16 16 16 16 16 15 15 15 15 15 15 15 15 14 14 14 13 13 13 12 12 12 12 11 11 11 11
16 16 17 17 17 17 17 17 17 16 16 17 17 17 16 16 16 16 15 15 15 15 15 15 15 14 14 14 14 14 14 13 13 13 12 12 12 12 11 11 11 11 10 10
16 16 16 17 16 16 16 16 16 16 16 16 16 16 16 16 16 15 15 15 15 14 14 14 14 14 14 14 13 13 13 13 12 12 12 11 11 11 11 10 10 10 10 9
15 16 16 16 16 16 16 16 16 16 15 15 16 16 15 15 15 15 14 14 14 14 14 13 13 13 13 13 13 13 12 12 12 11 11 11 11 10 10 10 9 9 9 9
14 15 15 15 15 15 15 15 15 15 15 15 15 15 15 15 14 14 14 14 14 13 13 13 13 13 12 12 12 12 12 11 11 11 10 10 10 10 9 9 9 8 8 8
14 14 14 14 14 14 14 14 14 14 14 14 14 14 14 14 14 14 13 13 13 13 12 12 12 12 12 11 11 11 11 10 10 10 10 9 9 9 8 8 8 7 7 7
13 13 13 13 13 13 13 14 14 14 14 14 14 14 13 13 13 13 13 13 12 12 12 11 11 11 11 11 10 10 10 10 9 9 9 8 8 8 7 7 7 6 6 6
12 12 12 12 12 13 13 13 13 13 13 13 13 13 13 12 12 12 12 12 11 11 11 11 11 10 10 10 10 9 9 9 8 8 8 7 7 7 7 6 6 6 5 5
11 11 11 12 12 12 12 12 12 12 12 12 12 12 12 12 11 11 11 11 11 10 10 10 10 10 9 9 9 9 8 8 8 7 7 7 6 6 6 6 5 5 5 4
11 11 11 11 11 11 11 11 11 11 11 11 11 11 11 11 11 11 10 10 10 10 9 9 9 8 8 8 8 8 7 7 7 6 6 6 6 5 5 5 5 4 4 4
10 10 10 11 11 11 11 11 11 11 10 10 10 10 10 10 10 10 9 9 9 9 8 8 8 7 7 7 7 7 6 6 6 6 5 5 5 5 4 4 4 4 3 3
9 9 10 10 10 10 10 10 10 10 10 10 9 9 9 9 9 8 8 8 8 7 7 7 7 7 6 6 6 6 5 5 5 5 5 4 4 4 4 3 3 3 2 2
Wind_Speed
5 5 4 5 6 7 6 8 7 6 6 7 7 7 7 7 7 8 8 10 11 11 10 9 9 9 9 9 9 9 9 8 8 8 7 7 7 6 5 5 6 5 4 3
3 4 3 5 7 7 7 6 6 5 6 6 4 4 5 6 8 9 9 10 10 10 10 11 11 10 9 9 9 9 10 9 8 7 7 7 7 6 6 5 5 5 5 4
2 4 2 4 7 7 6 6 7 7 7 4 4 6 7 7 8 9 9 9 10 10 11 11 11 11 11 11 10 10 9 8 8 8 8 7 8 7 6 6 5 5 5 5
1 1 4 7 5 5 6 5 6 6 6 7 7 6 6 7 8 8 8 9 9 9 9 9 9 10 10 9 9 10 9 8 8 8 8 7 7 7 6 5 5 5 5 5
2 2 4 6 3 4 5 3 4 6 5 5 6 5 1 3 6 8 8 8 8 8 8 8 9 9 9 9 9 9 9 9 9 9 9 8 8 7 6 5 5 5 4 5
3 3 5 7 5 3 4 2 4 5 7 7 6 4 4 5 5 5 5 5 5 5 5 7 7 9 10 9 9 9 10 9 8 9 9 9 9 7 5 5 5 5 4 4
4 4 7 7 4 2 5 7 5 4 6 7 6 7 6 5 5 5 5 5 6 6 6 5 6 9 9 8 9 8 7 7 7 8 9 8 7 5 5 5 5 4 4 3
5 5 7 5 2 5 7 4 4 4 5 5 5 4 5 6 6 6 6 5 6 7 5 4 6 8 8 7 7 6 6 7 7 7 7 7 7 5 5 6 5 4 3 2
7 7 6 5 5 4 4 4 4 5 5 7 6 5 5 5 6 6 6 6 5 7 6 4 5 7 8 5 5 7 7 6 6 6 5 6 7 6 5 5 4 4 3 3
3 5 4 3 1 1 2 4 5 6 7 7 7 6 6 6 6 5 5 6 5 7 6 4 4 5 6 5 6 7 7 6 5 6 5 5 5 5 5 5 5 4 4 3
3 3 2 3 1 1 2 3 5 5 5 7 8 7 7 6 6 5 5 5 6 7 6 4 4 4 4 5 7 7 6 5 5 4 5 4 4 3 4 4 6 6 5 4
5 6 4 5 4 3 5 4 5 5 5 5 7 8 7 6 5 6 6 6 6 6 6 5 5 4 4 5 7 8 6 5 4 4 4 4 4 3 3 3 4 5 5 5
6 5 4 4 3 3 5 5 5 5 6 7 5 7 8 7 5 6 6 7 7 6 6 5 6 4 3 4 6 7 7 6 4 4 4 4 4 4 3 3 4 3 3 3
4 3 2 2 3 3 5 5 5 5 4 6 7 7 8 8 7 6 5 5 6 6 6 6 6 4 3 4 6 6 6 6 5 4 4 4 4 4 3 3 2 1 1 0
3 4 5 4 3 3 4 6 6 5 5 5 6 8 9 9 8 6 5 6 6 7 6 5 5 3 3 5 6 6 5 4 4 4 4 4 4 3 3 3 2 1 1 2
2 2 4 6 6 5 5 6 6 5 4 6 6 7 7 8 7 7 6 6 7 6 5 5 4 2 4 5 6 5 4 6 6 5 4 4 3 3 3 2 2 1 1 0
5 3 3 5 5 5 5 5 6 6 5 6 7 7 8 9 8 7 6 5 6 6 5 5 3 3 4 5 6 5 4 5 6 5 4 4 3 3 3 3 2 1 0 0
6 7 7 8 7 6 5 5 6 6 5 5 7 8 9 9 9 7 6 6 7 6 4 3 4 5 5 5 5 4 5 4 4 4 4 4 3 3 3 2 2 1 1 1
3 4 4 5 6 6 6 5 5 5 5 6 8 8 8 7 7 7 7 7 7 5 2 3 7 6 5 5 6 4 5 5 4 4 4 4 4 3 3 2 2 1 1 2
2 3 4 4 4 5 5 4 5 5 5 6 7 8 7 7 7 8 8 6 4 4 4 5 6 5 4 4 6 4 5 5 5 4 4 4 3 2 2 2 2 2 2 2
4 4 5 5 4 4 4 4 5 5 5 6 8 8 8 7 7 7 7 4 1 3 6 7 5 4 4 5 6 4 4 4 4 4 4 3 3 3 3 3 2 2 2 2
4 4 5 5 5 4 3 4 5 5 5 6 7 8 8 7 6 6 4 4 4 6 5 4 4 5 6 7 5 5 5 4 4 4 4 3 3 3 3 2 2 2 2 2
3 4 4 4 5 4 4 4 5 6 7 7 8 8 8 6 6 6 4 2 3 7 5 4 6 9 9 6 5 5 5 5 4 4 3 3 3 3 3 2 2 2 2 1
2 3 3 3 5 5 4 4 4 5 6 6 6 7 7 6 3 2 4 6 7 8 5 7 10 11 9 5 5 5 4 4 4 4 4 3 3 3 3 2 2 1 1 1
2 2 4 5 5 4 4 5 6 6 6 5 5 5 4 5 5 4 5 6 8 8 6 7 11 10 7 5 5 5 4 4 4 4 4 3 3 3 2 2 1 1 1 1
2 2 2 3 3 4 5 5 5 5 6 6 4 4 4 5 6 6 6 7 8 9 6 5 5 7 5 5 5 5 4 5 5 4 4 3 3 2 2 1 1 1 1 1
2 2 3 3 3 3 4 5 5 5 6 7 6 4 5 6 6 6 7 6 6 6 5 5 5 5 5 5 5 5 4 4 4 4 3 3 2 2 1 1 1 1 1 1
Wind_Direction
230 246 225 222 222 203 189 190 193 222 219 231 215 200 188 180 177 171 173 176 179 182 184 183 183 184 185 185 182 176 172 178 185 182 174 167 162 165 161 157 160 158 150 148
292 279 260 248 234 211 206 198 200 214 245 232 193 167 168 171 166 166 176 182 185 186 185 187 188 187 184 184 183 174 176 184 181 175 169 167 167 165 159 160 159 152 159 158
269 295 340 257 226 206 204 196 182 207 226 187 158 172 180 184 173 175 183 185 186 189 192 193 191 187 186 186 179 175 180 180 176 176 174 173 168 161 166 170 162 160 168 163
221 34 232 252 246 194 192 221 206 198 196 180 181 183 183 176 175 180 186 188 189 191 193 192 188 185 182 175 173 177 179 179 177 174 174 171 166 171 175 168 165 170 174 174
149 203 273 287 265 178 171 239 219 186 180 173 150 108 30 209 181 183 185 185 187 189 186 180 181 180 170 170 172 176 181 185 182 175 173 172 176 181 178 168 171 175 174 174
151 174 230 246 253 223 136 244 260 184 176 169 138 141 229 222 181 166 165 167 165 160 152 160 174 165 160 169 174 185 189 187 180 176 175 180 186 184 174 171 178 171 174 182
174 207 257 250 257 117 152 219 238 182 170 170 174 191 193 177 162 156 151 148 145 139 145 163 163 153 157 165 183 191 179 169 170 175 179 182 180 173 163 165 163 166 175 189
170 194 244 249 158 176 210 206 183 157 150 148 148 145 145 146 144 139 133 131 134 136 139 139 143 146 151 170 183 165 155 160 169 172 174 170 162 163 162 160 162 169 171 197
189 213 238 227 213 216 173 169 169 148 144 136 134 142 144 139 138 137 133 132 131 130 126 117 134 145 153 174 158 147 147 159 165 164 164 158 160 161 157 159 167 176 176 201
221 256 260 258 217 98 165 170 162 148 144 137 138 143 137 134 133 132 128 130 126 121 121 125 140 149 159 158 146 141 146 155 156 153 152 149 152 158 163 172 174 179 185 201
228 268 345 337 301 144 95 111 124 124 135 142 137 137 137 137 138 136 127 124 123 125 126 132 132 135 139 142 141 137 136 136 135 139 145 144 140 151 166 180 179 179 190 189
212 220 196 236 238 151 122 121 127 123 115 121 134 140 136 135 134 131 130 126 119 117 117 118 113 110 112 128 136 136 132 131 134 136 135 135 131 97 63 106 139 154 162 165
207 215 208 207 196 161 141 133 122 119 136 133 128 131 132 128 125 124 124 127 131 130 124 118 110 102 104 120 127 131 135 139 136 136 137 138 137 138 120 52 63 93 129 147
190 156 155 180 183 161 139 128 114 105 112 128 129 123 121 116 116 118 128 136 131 121 115 114 110 105 111 117 120 126 130 136 136 138 142 143 145 149 147 145 131 19 346 248
223 184 179 172 144 124 118 112 107 106 106 111 123 126 127 125 127 132 126 120 113 107 105 109 107 99 105 115 117 121 124 128 131 131 131 131 135 135 135 139 142 141 56 19
206 128 133 141 148 142 130 130 136 147 137 135 133 134 134 131 128 122 118 120 121 122 119 112 107 98 104 110 112 114 118 123 125 123 119 116 118 120 122 126 128 127 132 129
164 178 166 163 168 161 155 159 161 160 154 152 151 140 127 120 117 116 117 119 120 120 116 113 110 98 99 109 113 113 109 112 111 111 116 120 117 118 119 120 124 126 163 137
194 192 190 183 177 166 157 156 158 155 156 160 148 135 132 136 139 140 135 121 109 99 93 103 104 101 96 99 106 109 110 109 111 117 117 114 116 119 121 123 128 125 78 55
204 186 176 167 164 157 157 158 157 153 147 141 138 139 143 146 144 138 130 122 121 125 127 100 102 101 98 97 103 102 107 108 105 105 108 108 105 106 113 116 111 102 90 73
149 154 147 145 143 146 152 152 146 143 145 140 135 132 134 139 136 132 128 131 156 167 147 119 113 107 104 104 98 102 106 110 111 109 106 108 111 104 100 102 102 97 88 86
141 142 141 145 144 141 148 151 147 152 151 143 143 147 147 142 138 135 133 137 167 125 122 118 119 117 112 109 98 100 102 105 107 109 108 108 105 98 94 91 87 85 83 78
134 140 146 149 144 141 146 145 146 144 141 140 138 138 136 135 133 127 129 151 150 132 125 125 124 119 116 107 102 103 104 106 105 105 106 106 105 102 97 92 88 82 78 78
139 139 143 150 152 151 140 141 146 144 143 145 145 144 146 150 149 143 143 149 133 128 124 127 123 116 111 107 107 106 106 107 109 110 110 109 109 110 106 94 86 82 76 64
107 126 138 140 135 133 138 141 135 134 133 133 141 144 142 135 121 118 129 128 123 119 116 121 117 113 107 106 108 109 109 109 107 107 105 101 98 97 97 95 87 73 63 46
103 120 126 133 143 156 155 135 118 113 109 106 107 111 120 132 138 134 120 119 118 112 107 112 111 107 103 106 110 113 113 111 110 108 103 102 99 97 95 93 92 79 45 19
106 126 140 151 153 147 141 134 130 128 124 116 106 101 99 101 109 111 110 110 110 109 106 106 106 101 100 101 101 101 102 103 97 94 99 99 97 91 85 70 51 43 19 350
83 93 104 102 101 117 123 128 133 138 140 136 129 120 115 113 111 110 108 106 107 105 103 101 100 100 100 98 96 94 93 93 93 95 92 88 84 78 62 40 4 353 338 323
Height
1521 1517 1517 1517 1517 1518 1522 1526 1532 1527 1524 1517 1514 1513 1514 1515 1517 1519 1521 1523 1525 1528 1531 1534 1537 1540 1543 1545 1548 1550 1553 1554 1556 1559 1561 1563 1564 1566 1567 1568 1569 1570 1570 1571
1520 1515 1515 1516 1513 1514 1515 1516 1519 1519 1518 1510 1510 1511 1513 1514 1515 1517 1519 1521 1523 1526 1529 1531 1534 1537 1540 1542 1545 1548 1550 1552 1554 1557 1559 1561 1563 1564 1566 1567 1568 1569 1569 1570
1528 1519 1517 1521 1511 1510 1511 1509 1513 1518 1513 1508 1510 1510 1511 1512 1513 1515 1516 1518 1521 1523 1526 1528 1531 1534 1537 1540 1542 1545 1547 1549 1552 1554 1556 1558 1560 1562 1564 1565 1566 1567 1568 1569
1528 1525 1532 1517 1503 1503 1505 1505 1504 1505 1505 1506 1507 1508 1509 1510 1512 1513 1515 1517 1519 1521 1523 1526 1529 1532 1535 1537 1540 1542 1545 1547 1549 1552 1554 1556 1558 1560 1561 1563 1564 1565 1566 1567
1530 1531 1524 1510 1502 1502 1506 1507 1502 1503 1504 1504 1505 1508 1510 1510 1511 1512 1513 1515 1516 1519 1521 1524 1526 1529 1532 1535 1537 1540 1542 1544 1546 1549 1551 1553 1555 1557 1559 1560 1561 1563 1564 1565
1527 1529 1529 1512 1499 1498 1503 1510 1501 1500 1501 1502 1504 1511 1511 1509 1510 1511 1512 1514 1515 1517 1519 1522 1524 1527 1530 1532 1535 1537 1539 1542 1544 1546 1548 1550 1552 1554 1556 1558 1559 1560 1561 1562
1524 1526 1518 1501 1497 1499 1513 1510 1499 1498 1498 1500 1501 1504 1506 1507 1508 1509 1511 1512 1514 1516 1518 1520 1523 1525 1527 1530 1532 1534 1537 1540 1542 1544 1546 1548 1550 1552 1553 1555 1556 1558 1559 1560
1521 1524 1519 1496 1496 1500 1499 1495 1496 1497 1497 1498 1500 1502 1504 1505 1506 1508 1510 1511 1513 1515 1517 1519 1521 1523 1525 1527 1530 1533 1535 1537 1539 1541 1544 1546 1548 1549 1551 1552 1553 1555 1556 1557
1508 1507 1496 1493 1493 1492 1493 1494 1494 1495 1497 1498 1500 1501 1503 1504 1506 1508 1509 1511 1513 1515 1516 1518 1520 1522 1524 1526 1529 1531 1533 1535 1537 1539 1541 1543 1545 1546 1548 1549 1550 1551 1552 1553
1501 1496 1493 1492 1491 1491 1492 1493 1493 1495 1496 1498 1499 1501 1502 1504 1505 1507 1509 1511 1513 1514 1516 1518 1520 1521 1523 1525 1527 1529 1530 1533 1534 1536 1538 1540 1542 1543 1545 1546 1547 1548 1549 1550
1498 1494 1491 1491 1491 1492 1492 1493 1494 1495 1496 1498 1499 1501 1502 1504 1505 1507 1509 1511 1513 1514 1515 1517 1519 1521 1522 1524 1526 1527 1529 1530 1532 1534 1536 1537 1539 1541 1542 1543 1544 1546 1546 1547
1495 1491 1491 1491 1490 1492 1492 1493 1494 1495 1496 1498 1499 1501 1502 1504 1506 1507 1509 1511 1512 1514 1515 1517 1518 1519 1521 1523 1524 1525 1527 1528 1530 1532 1534 1535 1537 1538 1540 1541 1542 1543 1544 1545
1487 1487 1488 1488 1490 1491 1492 1493 1494 1495 1496 1497 1499 1501 1502 1504 1506 1508 1509 1511 1512 1513 1515 1516 1517 1519 1520 1522 1523 1524 1525 1527 1528 1530 1531 1533 1534 1536 1537 1539 1540 1540 1541 1541
1484 1485 1486 1487 1489 1490 1491 1492 1493 1495 1496 1497 1499 1500 1502 1503 1505 1507 1509 1510 1512 1513 1514 1516 1517 1518 1519 1521 1522 1523 1524 1525 1526 1528 1529 1531 1532 1534 1535 1536 1537 1537 1538 1539
1481 1482 1484 1485 1487 1489 1490 1491 1493 1494 1495 1497 1499 1500 1502 1503 1505 1507 1509 1510 1512 1513 1514 1515 1516 1517 1518 1519 1520 1521 1523 1524 1525 1526 1528 1529 1530 1532 1533 1534 1534 1535 1536 1536
1479 1480 1482 1484 1485 1487 1489 1490 1492 1493 1495 1496 1498 1500 1501 1503 1504 1506 1508 1510 1511 1512 1513 1514 1515 1516 1517 1518 1519 1520 1521 1522 1523 1524 1526 1527 1529 1530 1531 1532 1532 1533 1533 1534
1477 1478 1480 1482 1484 1485 1487 1489 1490 1492 1494 1495 1497 1498 1500 1502 1504 1505 1507 1509 1510 1511 1512 1514 1515 1516 1516 1517 1518 1519 1520 1521 1522 1523 1525 1526 1527 1528 1529 1530 1531 1531 1531 1531
1475 1476 1478 1479 1481 1483 1485 1487 1489 1490 1492 1494 1496 1497 1499 1501 1502 1504 1506 1507 1509 1510 1511 1513 1514 1515 1516 1516 1517 1518 1519 1520 1521 1522 1524 1525 1526 1527 1528 1528 1529 1529 1529 1529
1472 1473 1475 1477 1479 1481 1482 1484 1486 1488 1490 1492 1494 1495 1497 1499 1501 1503 1504 1506 1507 1508 1510 1511 1512 1513 1514 1515 1516 1517 1518 1519 1520 1521 1522 1523 1524 1525 1526 1526 1526 1526 1526 1526
1469 1471 1472 1474 1477 1479 1481 1483 1485 1486 1488 1491 1492 1494 1496 1498 1500 1501 1503 1504 1505 1506 1508 1510 1511 1512 1513 1514 1515 1516 1517 1518 1519 1519 1520 1521 1522 1523 1523 1523 1523 1523 1523 1523
1467 1469 1471 1473 1475 1477 1479 1481 1483 1484 1487 1489 1490 1492 1494 1496 1498 1500 1501 1502 1504 1506 1507 1508 1510 1511 1512 1512 1513 1514 1515 1516 1517 1518 1519 1519 1520 1520 1521 1521 1521 1521 1520 1520
1466 1468 1470 1471 1473 1475 1477 1479 1481 1483 1485 1487 1489 1490 1492 1494 1496 1498 1499 1501 1503 1504 1505 1507 1508 1509 1510 1511 1512 1512 1513 1514 1515 1516 1517 1517 1518 1518 1518 1518 1518 1518 1517 1516
1465 1466 1468 1470 1471 1473 1476 1477 1479 1481 1483 1485 1486 1488 1490 1492 1494 1496 1497 1500 1501 1502 1504 1505 1506 1507 1508 1509 1510 1511 1512 1513 1513 1514 1515 1515 1515 1516 1516 1516 1515 1515 1514 1513
1464 1465 1467 1469 1470 1472 1474 1476 1478 1480 1482 1483 1485 1487 1489 1490 1492 1494 1496 1498 1500 1501 1502 1503 1505 1506 1507 1508 1508 1509 1510 1511 1512 1512 1513 1513 1513 1513 1513 1513 1512 1512 1511 1510
1463 1465 1466 1468 1469 1470 1472 1475 1477 1479 1481 1483 1484 1486 1488 1489 1491 1493 1495 1496 1498 1500 1501 1502 1503 1504 1505 1506 1507 1508 1508 1509 1510 1510 1511 1511 1511 1511 1511 1510 1509 1509 1508 1507
1462 1464 1465 1467 1468 1469 1471 1473 1475 1478 1480 1481 1483 1485 1487 1488 1490 1492 1494 1495 1497 1498 1500 1501 1502 1503 1504 1505 1506 1506 1507 1507 1508 1508 1509 1509 1509 1508 1508 1507 1506 1505 1504 1503
1462 1463 1465 1466 1468 1469 1471 1473 1475 1477 1478 1480 1482 1484 1486 1487 1489 1491 1493 1494 1496 1497 1499 1500 1501 1502 1503 1504 1505 1505 1506 1506 1506 1507 1507 1507 1507 1506 1505 1505 1503 1502 1501 1499